TimeEST,TemperatureF,Dew PointF,Humidity,Sea Level PressureIn,VisibilityMPH,Wind Direction,Wind SpeedMPH,Gust SpeedMPH,PrecipitationIn,Events,Conditions,WindDirDegrees,DateUTC
12:14 AM,41.7,31.5,67,30.23,10.0,South,8.1,-,N/A,,Clear,170,2013-11-21 05:14:00
12:34 AM,41.9,31.1,66,30.24,10.0,South,8.1,-,N/A,,Clear,190,2013-11-21 05:34:00
12:54 AM,41.9,30.9,65,30.24,10.0,South,6.9,-,N/A,,Clear,190,2013-11-21 05:54:00
1:14 AM,41.9,30.9,65,30.24,10.0,South,5.8,-,N/A,,Clear,170,2013-11-21 06:14:00
1:34 AM,41.9,30.7,65,30.24,10.0,South,5.8,-,N/A,,Clear,180,2013-11-21 06:34:00
1:53 AM,41.9,30.7,65,30.23,10.0,South,5.8,-,N/A,,Scattered Clouds,190,2013-11-21 06:53:00
2:14 AM,41.9,30.9,65,30.23,10.0,South,4.6,-,N/A,,Overcast,190,2013-11-21 07:14:00
2:34 AM,41.9,30.9,65,30.23,10.0,South,5.8,-,N/A,,Overcast,190,2013-11-21 07:34:00
2:53 AM,41.9,30.7,65,30.24,10.0,SSW,8.1,-,N/A,,Overcast,200,2013-11-21 07:53:00
3:14 AM,41.9,30.6,64,30.24,10.0,SSW,9.2,-,N/A,,Overcast,200,2013-11-21 08:14:00
3:34 AM,41.7,30.2,64,30.24,10.0,SSW,12.7,-,N/A,,Overcast,200,2013-11-21 08:34:00
3:53 AM,39.9,32.9,76,30.24,10.0,SW,13.8,18.4,N/A,,Drizzle,230,2013-11-21 08:53:00
4:14 AM,38.3,34.5,86,30.24,7.0,SSW,11.5,-,N/A,Rain,Light Rain,210,2013-11-21 09:14:00
4:34 AM,37.6,35.1,91,30.23,5.0,SSW,6.9,-,N/A,Rain,Light Rain,210,2013-11-21 09:34:00
4:53 AM,37.4,35.2,92,30.23,10.0,South,5.8,-,N/A,,Light Drizzle,190,2013-11-21 09:53:00
5:14 AM,37.4,35.6,93,30.22,10.0,South,4.6,-,N/A,,Light Drizzle,190,2013-11-21 10:14:00
5:34 AM,37.4,35.6,93,30.22,7.0,South,4.6,-,N/A,Rain,Light Rain,190,2013-11-21 10:34:00
5:53 AM,37.4,35.8,94,30.22,7.0,South,4.6,-,N/A,,Drizzle,190,2013-11-21 10:53:00
6:14 AM,37.6,36.0,94,30.21,7.0,SSW,4.6,-,N/A,,Drizzle,200,2013-11-21 11:14:00
6:34 AM,37.8,36.1,94,30.21,7.0,South,4.6,-,N/A,,Overcast,190,2013-11-21 11:34:00
6:53 AM,37.8,36.5,95,30.21,7.0,South,5.8,-,N/A,,Overcast,170,2013-11-21 11:53:00
7:14 AM,38.5,37.0,95,30.21,7.0,South,4.6,-,N/A,,Overcast,170,2013-11-21 12:14:00
7:34 AM,39.2,37.6,94,30.21,7.0,Calm,Calm,-,N/A,,Overcast,0,2013-11-21 12:34:00
7:53 AM,39.2,37.4,93,30.22,7.0,Calm,Calm,-,N/A,,Overcast,0,2013-11-21 12:53:00
8:14 AM,39.2,37.6,94,30.23,5.0,Calm,Calm,-,N/A,,Overcast,0,2013-11-21 13:14:00
8:34 AM,39.7,38.3,95,30.22,7.0,Calm,Calm,-,N/A,,Overcast,0,2013-11-21 13:34:00
8:53 AM,39.2,37.8,95,30.22,4.0,Calm,Calm,-,N/A,,Overcast,0,2013-11-21 13:53:00
9:14 AM,39.7,38.7,96,30.22,4.0,Calm,Calm,-,N/A,,Overcast,0,2013-11-21 14:14:00
9:34 AM,40.1,39.2,97,30.21,4.0,Calm,Calm,-,N/A,,Overcast,0,2013-11-21 14:34:00
9:53 AM,40.1,39.2,97,30.21,4.0,Calm,Calm,-,N/A,Rain,Light Rain,0,2013-11-21 14:53:00
10:14 AM,40.6,39.4,95,30.21,5.0,Calm,Calm,-,N/A,,Overcast,0,2013-11-21 15:14:00
10:34 AM,41.5,39.7,93,30.21,7.0,Calm,Calm,-,N/A,,Overcast,0,2013-11-21 15:34:00
10:54 AM,42.4,39.4,89,30.21,10.0,Calm,Calm,-,N/A,,Overcast,0,2013-11-21 15:54:00
11:14 AM,43.0,38.3,84,30.21,10.0,South,3.5,-,N/A,,Overcast,180,2013-11-21 16:14:00
11:34 AM,43.3,37.4,80,30.20,10.0,South,4.6,-,N/A,,Overcast,190,2013-11-21 16:34:00
11:54 AM,43.7,36.7,76,30.20,10.0,SSW,5.8,-,N/A,,Overcast,200,2013-11-21 16:54:00
12:14 PM,43.7,36.1,75,30.19,10.0,South,5.8,-,N/A,,Overcast,190,2013-11-21 17:14:00
12:34 PM,43.9,36.3,75,30.19,10.0,SSW,4.6,-,N/A,,Overcast,200,2013-11-21 17:34:00
12:54 PM,44.2,36.1,73,30.18,10.0,SSW,5.8,-,N/A,,Overcast,200,2013-11-21 17:54:00
1:14 PM,44.2,35.8,72,30.18,10.0,SSW,4.6,-,N/A,,Overcast,200,2013-11-21 18:14:00
1:34 PM,44.6,35.8,71,30.17,10.0,SSW,4.6,-,N/A,,Overcast,200,2013-11-21 18:34:00
1:54 PM,44.2,35.8,72,30.17,10.0,SW,5.8,-,N/A,,Overcast,220,2013-11-21 18:54:00
2:14 PM,44.2,36.3,74,30.17,10.0,SSW,5.8,-,N/A,,Overcast,210,2013-11-21 19:14:00
2:34 PM,44.2,36.1,73,30.16,10.0,SW,4.6,-,N/A,,Overcast,220,2013-11-21 19:34:00
2:54 PM,44.2,36.3,74,30.17,10.0,SW,5.8,-,N/A,,Overcast,220,2013-11-21 19:54:00
3:14 PM,44.1,37.0,76,30.17,10.0,SW,4.6,-,N/A,,Overcast,220,2013-11-21 20:14:00
3:33 PM,43.9,37.0,77,30.17,10.0,SSW,3.5,-,N/A,,Overcast,210,2013-11-21 20:33:00
3:54 PM,43.9,37.0,77,30.18,10.0,SSW,4.6,-,N/A,,Overcast,210,2013-11-21 20:54:00
4:14 PM,43.7,37.2,78,30.18,10.0,SSW,3.5,-,N/A,,Overcast,210,2013-11-21 21:14:00
4:33 PM,43.7,37.2,78,30.18,10.0,Calm,Calm,-,N/A,,Overcast,0,2013-11-21 21:33:00
4:54 PM,43.3,37.4,80,30.17,10.0,Calm,Calm,-,N/A,,Overcast,0,2013-11-21 21:54:00
5:14 PM,43.5,37.4,79,30.17,10.0,Calm,Calm,-,N/A,,Overcast,0,2013-11-21 22:14:00
5:33 PM,42.8,37.9,83,30.18,10.0,Calm,Calm,-,N/A,,Overcast,0,2013-11-21 22:33:00
5:54 PM,42.6,37.9,83,30.17,10.0,Calm,Calm,-,N/A,,Overcast,0,2013-11-21 22:54:00
6:14 PM,42.3,38.3,86,30.17,10.0,Calm,Calm,-,N/A,,Overcast,0,2013-11-21 23:14:00
6:33 PM,41.9,38.3,87,30.18,10.0,Calm,Calm,-,N/A,,Overcast,0,2013-11-21 23:33:00
6:54 PM,41.4,38.7,90,30.18,10.0,Calm,Calm,-,N/A,,Overcast,0,2013-11-21 23:54:00
7:14 PM,41.4,38.8,91,30.18,10.0,Calm,Calm,-,N/A,,Overcast,0,2013-11-22 00:14:00
7:33 PM,41.0,38.5,91,30.18,10.0,Calm,Calm,-,N/A,,Overcast,0,2013-11-22 00:33:00
7:54 PM,41.2,39.0,92,30.18,10.0,Calm,Calm,-,N/A,,Overcast,0,2013-11-22 00:54:00
8:14 PM,41.0,38.3,90,30.18,10.0,Calm,Calm,-,N/A,,Overcast,0,2013-11-22 01:14:00
8:34 PM,41.5,38.1,88,30.18,10.0,Calm,Calm,-,N/A,,Overcast,0,2013-11-22 01:34:00
8:54 PM,41.2,38.3,89,30.17,10.0,Calm,Calm,-,N/A,,Overcast,0,2013-11-22 01:54:00
9:14 PM,41.0,38.3,90,30.17,10.0,Calm,Calm,-,N/A,,Overcast,0,2013-11-22 02:14:00
9:34 PM,41.0,38.7,91,30.16,10.0,Calm,Calm,-,N/A,Rain,Light Rain,0,2013-11-22 02:34:00
9:54 PM,41.0,39.0,93,30.17,10.0,Calm,Calm,-,N/A,Rain,Light Rain,0,2013-11-22 02:54:00
10:14 PM,40.5,39.2,95,30.17,10.0,Calm,Calm,-,N/A,Rain,Light Rain,0,2013-11-22 03:14:00
10:34 PM,40.3,39.2,96,30.16,10.0,Calm,Calm,-,0.01,Rain,Rain,0,2013-11-22 03:34:00
10:54 PM,40.3,39.2,96,30.17,10.0,Calm,Calm,-,0.01,Rain,Light Rain,0,2013-11-22 03:54:00
11:14 PM,40.5,39.6,97,30.16,7.0,Calm,Calm,-,N/A,Rain,Light Rain,0,2013-11-22 04:14:00
11:34 PM,40.5,39.6,97,30.16,7.0,Calm,Calm,-,N/A,Rain,Light Rain,0,2013-11-22 04:34:00
11:54 PM,41.0,39.4,94,30.16,7.0,Calm,Calm,-,0.02,Rain,Light Rain,0,2013-11-22 04:54:00